Location: Unspecified
(48.8582°N, 2.2947°E)
Time: 06:02:56
(UTC+01:00)

Daily predictions for brighter satellites

Satellite Brightness Start Highest point End
(mag) Time Altitude Azimuth Time Altitude Azimuth Time Altitude Azimuth
Cosmos 1634 Rocket 4.0 18:00:35 10° N 18:06:49 78° E 18:12:59 10° SSE
COSMOS 2428 3.3 18:02:23 10° SW 18:08:02 60° WNW 18:13:42 10° NNE
Cosmos 372 Rocket 4.0 18:03:12 10° NNW 18:08:20 86° ENE 18:13:26 10° SSE
Cosmos 1763 Rocket 4.1 18:05:06 10° SW 18:10:14 60° WNW 18:15:20 10° NNE
Cosmos 540 Rocket 3.6 18:08:49 10° S 18:13:54 59° ESE 18:18:59 10° NNE
Cosmos 2297 3.7 18:08:24 10° NNW 18:14:05 67° ENE 18:19:48 10° SE
Lacrosse 5 2.9 18:09:58 10° WNW 18:14:34 33° N 18:19:11 10° ENE
Cosmos 1900 4.3 18:09:59 10° NW 18:14:58 77° NE 18:19:58 10° SE
Cosmos 1703 4.5 18:13:21 10° SE 18:16:25 22° E 18:19:30 10° NE
Cosmos 1300 2.7 18:15:00 10° N 18:18:51 88° E 18:22:42 10° S
Cosmos 44 3.4 18:15:38 10° SSW 18:20:51 78° SE 18:25:49 10° NE
SJ-7 4.5 18:17:32 10° SSE 18:21:33 84° WSW 18:25:35 10° NNW
Cosmos 332 Rocket 4.4 18:17:56 10° SW 18:22:43 61° WNW 18:27:34 10° NNE
IDEFIX/ARIANE 42P 3.0 18:18:17 10° S 18:23:29 68° WSW 18:28:46 10° NNW
CENTAUR R/B 3.2 18:17:45 10° WSW 18:23:58 56° NW 18:31:04 10° NE
SJ-6B 4.2 18:21:10 10° ESE 18:24:16 21° ENE 18:27:24 10° NNE
CZ-4 R/B 2.2 18:22:44 10° S 18:26:33 54° W 18:30:26 10° NNW
SL-16 R/B 4.4 18:27:01 10° WNW 18:30:11 15° NNW 18:33:20 10° N
ALOS 3.6 18:27:50 10° ESE 18:30:58 18° ENE 18:34:06 10° NNE
USA 116 3.1 18:28:57 10° NNE 18:32:08 89° NW 18:35:13 10° SSW
CZ-2C R/B 3.3 18:30:57 10° S 18:35:43 52° W 18:40:23 10° NNW
Cosmos 2360 Rocket 4.1 18:33:13 10° W 18:37:38 23° NW 18:42:03 10° N
Cosmos 2151 2.9 18:34:27 10° S 18:38:39 87° E 18:42:53 10° N
ATLAS 5 CENTAUR R/B 3.5 18:34:54 10° NNW 18:39:25 24° NNE 18:43:10 14° ENE
Cosmos 1707 Rocket 3.7 18:36:02 10° N 18:40:17 50° ENE 18:44:30 10° SSE
Cosmos 2084 Rocket 4.3 18:37:27 10° NNW 18:40:43 26° NNE 18:42:53 16° E
Aureole 2 Rocket 2.7 18:38:30 10° SSW 18:42:24 82° ESE 18:46:36 10° NNE
SL-14 R/B 3.4 18:39:11 10° SSW 18:43:09 82° W 18:47:11 10° N
COSMO-SKYMED 1 2.8 18:39:23 10° NNE 18:43:35 46° E 18:47:46 10° S
Meteor 1-28 Rocket 4.0 18:40:18 10° NNE 18:43:40 31° E 18:46:59 10° SSE
Cosmos 1484 Rocket 2.8 18:40:31 10° SSE 18:44:29 89° ENE 18:48:32 10° NNW
Cosmos 1980 3.9 18:38:53 10° SSW 18:44:34 77° WNW 18:50:18 10° NNE
YAOGAN 1 3.6 18:41:17 10° S 18:45:30 51° W 18:49:46 10° NNW
SMAP 4.3 18:41:32 10° S 18:46:00 46° W 18:50:31 10° NNW
Cosmos 1340 Rocket 2.7 18:45:09 10° S 18:49:02 70° E 18:52:57 10° NNE
Cosmos 371 Rocket 4.3 18:45:38 10° SW 18:50:15 46° WNW 18:54:55 10° NNE
CZ-4C R/B 3.8 18:45:57 10° NW 18:51:21 27° NNE 18:55:33 16° ENE
Cosmos 2279 Rocket 4.1 18:45:57 10° N 18:52:12 83° W 18:58:26 10° S
Cosmos 1666 Rocket 3.9 18:50:50 10° SSE 18:54:56 42° E 18:59:06 10° NNE
Cosmos 1943 Rocket 3.5 18:53:06 10° N 18:56:57 19° NE 18:58:18 17° ENE
Abrixas 2.6 18:56:27 10° WSW 18:59:22 59° SSE 19:00:33 30° E
Cosmos 1869 3.7 18:55:39 10° N 18:59:29 39° ENE 19:03:17 10° SE
Cosmos 2219 Rocket 3.2 18:54:52 10° SW 19:00:14 43° NW 19:05:36 10° NNE
Lacrosse 4 Rocket 1.2 18:56:45 10° NNW 19:00:50 73° ENE 19:04:53 10° SE
Meteor 1-11 4.4 18:55:34 10° SSW 19:01:18 83° WNW 19:07:08 10° N
TIMED 4.5 18:58:46 10° NNW 19:03:09 63° ENE 19:07:28 10° SSE
Resurs 1-3 4.5 19:07:14 24° E 19:08:16 27° ENE 19:11:59 10° N
Cosmos 1603 4.5 19:04:54 10° SSE 19:09:41 30° ESE 19:11:40 24° ENE
Aureole 1 Rocket 4.3 19:04:12 10° S 19:09:47 47° E 19:16:54 10° NNE
Resurs 01 Rocket 2.3 19:06:01 10° SE 19:09:59 33° ENE 19:13:58 10° N
Cosmos 2333 Rocket 3.2 19:04:48 10° SW 19:10:13 46° NW 19:15:41 10° NNE
Cosmos 1626 2.0 19:08:37 10° S 19:12:20 72° E 19:16:06 10° NNE
Iridium 4 Rocket 3.5 19:09:03 10° SSE 19:13:01 36° E 19:16:52 10° NNE
Spot 2 Rocket 3.9 19:09:19 10° SE 19:13:58 39° ENE 19:18:38 10° N
DMSP B5D1-3 4.4 19:09:47 10° NNE 19:14:53 68° ESE 19:19:57 10° S
Nadezhda 4 Rocket 4.0 19:09:32 10° S 19:15:44 65° E 19:22:01 10° NNE
FAST Rocket 4.0 19:14:05 10° S 19:16:42 73° E 19:20:09 10° NNE
FengYun 1-2 T 4.4 19:12:12 10° SE 19:17:31 49° ENE 19:22:47 10° N
Cosmos 2058 3.9 19:14:31 10° SSW 19:18:29 46° WNW 19:22:27 10° N
Cosmos 921 Rocket 4.3 19:14:55 10° N 19:17:34 22° NE 19:17:34 22° NE
Cosmos 304 Rocket 4.0 19:17:25 10° SSW 19:22:13 70° WNW 19:27:00 10° NNE
Cosmos 1461 3.0 19:23:55 10° SW 19:28:04 72° NW 19:29:58 30° NNE
Cosmos 1470 Rocket 3.9 19:24:02 10° SSE 19:28:04 39° E 19:28:04 39° E
Cosmos 1184 Rocket 2.6 19:24:58 10° S 19:28:19 82° E 19:29:27 39° NNE
HJ-1C 4.2 19:32:39 38° NNE 19:32:39 38° NNE 19:35:03 10° N
SKYMED 2 4.1 19:27:25 10° N 19:31:43 59° WNW 19:35:58 10° SSW
Cosmos 1538 Rocket 4.0 19:26:59 10° SSW 19:32:18 86° WNW 19:37:06 13° NNE
Cosmos 972 Rocket 4.3 19:27:21 10° N 19:32:24 49° ENE 19:35:39 23° SE
Orbus 7S? 4.4 19:28:40 10° WNW 19:32:33 74° SW 19:41:33 10° SE
Cosmos 1805 Rocket 4.2 19:28:37 10° SSW 19:33:00 57° WNW 19:37:25 10° N
Blok-2BL 3.3 19:29:49 10° NW 19:33:07 73° SW 19:33:51 49° SSE
Cosmos 1455 3.0 19:30:38 10° NNW 19:34:21 53° W 19:38:04 10° S
Cosmos 1242 Rocket 2.2 19:32:00 10° N 19:35:30 80° ENE 19:37:49 20° SSE
Cosmos 2242 Rocket 3.6 19:31:13 10° N 19:35:40 84° W 19:40:07 10° S
ATLAS 3B R/B 3.8 19:30:27 10° NW 19:36:24 27° NNE 19:38:31 23° NE
Cosmos 1356 Rocket 3.7 19:33:53 10° SSW 19:37:50 64° WNW 19:41:46 10° N
Cosmos 1092 Rocket 3.9 19:32:36 10° S 19:38:55 71° E 19:45:14 10° NNE
Cosmos 1371 Rocket 4.2 19:34:06 10° NNW 19:39:05 43° ENE 19:39:38 42° ENE
Cosmos 2369 Rocket 2.3 19:33:52 10° NNW 19:39:27 54° NE 19:41:27 36° ESE
Cosmos 1553 Rocket 4.4 19:33:45 10° N 19:39:28 37° ENE 19:40:18 36° E
Cosmos 2237 Rocket 3.5 19:34:35 10° WSW 19:39:47 37° NW 19:45:01 10° NNE
FREGAT/IRIS 3.0 19:36:54 10° S 19:39:56 64° W 19:42:59 10° NNW
USA 215 3.3 19:34:36 17° SE 19:39:57 80° SW 19:46:33 10° WNW
Cosmos 923 Rocket 4.0 19:35:03 10° S 19:40:06 54° ESE 19:41:42 39° NE
Sich 1 3.4 19:39:49 10° SSW 19:44:13 66° W 19:48:39 10° N
Cosmos 1680 Rocket 3.6 19:41:14 10° S 19:46:13 48° ESE 19:46:34 47° E
SL-16 R/B 2.6 19:42:57 10° SW 19:48:34 62° WNW 19:53:00 17° NNE
Cosmos 1867 3.6 19:48:07 10° NW 19:53:33 58° NE 19:54:18 53° E
Cosmos 1633 Rocket 3.6 19:51:26 10° SSW 19:55:46 57° WNW 20:00:08 10° N
Lacrosse 5 2.5 19:53:43 10° NW 19:58:32 41° NNE 19:58:42 41° NNE
SJ-6B 4.0 19:54:42 10° S 19:58:39 45° W 20:02:40 10° NNW
Cosmos 2195 Rocket 4.3 19:55:15 10° S 20:01:18 69° E 20:07:27 10° NNE
Cosmos 773 Rocket 4.2 19:59:12 10° SSW 20:04:22 70° WNW 20:07:08 28° NNE
Meteor 1-26 Rocket 4.1 20:01:00 10° N 20:06:41 62° ENE 20:06:41 62° ENE
ALOS 2.5 20:03:16 10° S 20:07:55 68° WSW 20:12:35 10° NNW
FENGYUN 3A 3.8 20:03:33 10° S 20:08:54 74° WSW 20:14:20 10° NNW
Cosmos 1862 Rocket 4.1 20:11:17 10° NNW 20:15:37 57° W 20:19:52 10° S
CENTAUR R/B 4.2 20:10:32 10° WNW 20:16:16 28° NNW 20:19:24 21° NNE
Cosmos 292 Rocket 3.8 20:14:10 10° SSW 20:18:38 75° WSW 20:18:38 75° WSW
BREEZE-M DEB (TANK) 3.8 20:04:01 10° W 20:19:43 90° NNE 20:20:27 69° E
Cosmos 2084 Rocket 4.4 20:16:41 10° NW 20:19:30 41° W 20:19:30 41° W
Cosmos 2112 Rocket 4.2 20:17:44 10° SSW 20:21:59 60° S 20:21:59 60° S
Cosmos 1417 Rocket 4.3 20:16:54 10° N 20:23:08 89° E 20:26:46 26° S
ATLAS 5 CENTAUR R/B 2.4 20:19:24 10° NW 20:24:45 61° NNE 20:24:45 61° NNE
Cosmos 1943 4.4 20:20:09 10° S 20:22:52 28° S 20:22:52 28° S
USA 229 DEB 3.7 20:20:41 10° SW 20:27:35 81° NW 20:29:31 51° NNE
USA 229 3.7 20:20:47 10° SW 20:27:40 81° NW 20:29:35 52° NNE
Lacrosse 4 Rocket 4.4 20:36:59 10° WNW 20:38:59 13° WSW 20:40:58 10° SW
Cosmos 1655 Rocket 3.9 20:32:44 10° S 20:39:08 86° WNW 20:45:31 10° N
CZ-4C R/B 2.9 20:34:34 10° NW 20:40:46 56° NNE 20:40:46 56° NNE
Cosmos 1943 Rocket 2.9 20:36:04 10° NNW 20:39:52 44° NNW 20:39:52 44° NNW
Resurs 01 Rocket 3.4 20:42:31 10° SSW 20:46:28 31° W 20:50:25 10° NNW
Cosmos 1603 4.3 20:48:06 10° SW 20:53:33 51° NW 20:53:37 51° NW
S3M 4.2 20:51:20 10° NNW 20:57:39 68° W 20:57:41 68° W
Cosmos 2369 Rocket 3.8 21:18:24 10° NW 21:23:11 29° WSW 21:23:20 29° WSW
ATLAS 3B R/B 3.8 21:21:38 10° NW 21:25:47 36° NNW 21:25:47 36° NNW
Lacrosse 5 4.4 21:36:46 10° WNW 21:37:55 17° WNW 21:37:55 17° WNW
